LVDTB SAZM-SADF

Flight info

Callsign LVDTB
Flight time N/A
Altitude 5000
Route PULPA1D PULPA W31 TENIL/N0112F040 DCT EZE DCT TRINI
Aircraft C172/L-SFG/C

Departure

Time 2026-05-07 04:59
Airport Ástor Piazzola International Airport (SAZM)

Arrival

Time N/A
Airport San Fernando Airport (SADF)
Time Latitude Longitude Altitude Speed Heading
2026-05-07 04:49 -37.93450 -57.58001 48 ft 0 kts 298°
2026-05-07 04:53 -37.93448 -57.58006 48 ft 3 kts 301°
2026-05-07 04:53 -37.93405 -57.58043 48 ft 12 kts 12°
2026-05-07 04:54 -37.93304 -57.58025 48 ft 17 kts 351°
2026-05-07 04:54 -37.93193 -57.58010 48 ft 12 kts 32°
2026-05-07 04:54 -37.93179 -57.57998 48 ft 0 kts 34°
2026-05-07 04:55 -37.93174 -57.57993 48 ft 6 kts 34°
2026-05-07 04:55 -37.93122 -57.57905 48 ft 9 kts 105°
2026-05-07 04:55 -37.93148 -57.57862 48 ft 0 kts 118°
2026-05-07 04:57 -37.93156 -57.57844 48 ft 13 kts 122°
2026-05-07 04:57 -37.93300 -57.57565 46 ft 60 kts 123°
2026-05-07 04:57 -37.93585 -57.56997 50 ft 89 kts 118°
2026-05-07 04:57 -37.93895 -57.56306 192 ft 92 kts 114°
2026-05-07 04:58 -37.94229 -57.55604 337 ft 93 kts 121°
2026-05-07 04:58 -37.94540 -57.54918 491 ft 83 kts 111°
2026-05-07 04:58 -37.94801 -57.54344 547 ft 68 kts 119°
2026-05-07 04:58 -37.95046 -57.53807 609 ft 76 kts 110°
2026-05-07 04:59 -37.95327 -57.53223 849 ft 78 kts 116°
2026-05-07 04:59 -37.95605 -57.52630 1079 ft 77 kts 104°
2026-05-07 04:59 -37.95596 -57.51992 1295 ft 71 kts 68°
2026-05-07 04:59 -37.95339 -57.51496 1511 ft 65 kts 49°
2026-05-07 05:00 -37.95065 -57.51051 1709 ft 66 kts 49°
2026-05-07 05:00 -37.94736 -57.50516 1749 ft 85 kts 50°
2026-05-07 05:00 -37.94344 -57.49926 1806 ft 94 kts 49°
2026-05-07 05:00 -37.93934 -57.49292 1925 ft 97 kts 52°
2026-05-07 05:01 -37.93541 -57.48621 2098 ft 92 kts 51°
2026-05-07 05:01 -37.93160 -57.47993 2293 ft 88 kts 50°
2026-05-07 05:01 -37.92794 -57.47398 2484 ft 83 kts 49°
2026-05-07 05:01 -37.92448 -57.46839 2690 ft 80 kts 49°
2026-05-07 05:02 -37.92111 -57.46300 2894 ft 76 kts 49°
2026-05-07 05:02 -37.91791 -57.45786 3097 ft 72 kts 48°
2026-05-07 05:02 -37.91491 -57.45308 3310 ft 66 kts 47°
2026-05-07 05:02 -37.91219 -57.44876 3489 ft 59 kts 47°
2026-05-07 05:03 -37.90966 -57.44476 3620 ft 58 kts 47°
2026-05-07 05:03 -37.90725 -57.44093 3732 ft 54 kts 42°
2026-05-07 05:03 -37.90445 -57.43719 3791 ft 62 kts 48°
2026-05-07 05:03 -37.90197 -57.43289 3893 ft 60 kts 34°
2026-05-07 05:04 -37.89915 -57.42912 3956 ft 66 kts 57°
2026-05-07 05:04 -37.89647 -57.42525 4036 ft 62 kts 35°
2026-05-07 05:04 -37.89461 -57.42022 4114 ft 73 kts 93°
2026-05-07 05:04 -37.89276 -57.41465 4133 ft 80 kts 35°
2026-05-07 05:05 -37.88842 -57.40898 4104 ft 92 kts 46°
2026-05-07 05:05 -37.88421 -57.40295 4130 ft 91 kts 45°
2026-05-07 05:05 -37.87958 -57.39780 4170 ft 89 kts 47°
2026-05-07 05:05 -37.87604 -57.39144 4216 ft 88 kts 50°
2026-05-07 05:06 -37.87240 -57.38534 4266 ft 87 kts 49°
2026-05-07 05:06 -37.86872 -57.37928 4313 ft 87 kts 49°
2026-05-07 05:06 -37.86505 -57.37331 4366 ft 87 kts 49°
2026-05-07 05:06 -37.86127 -57.36721 4415 ft 87 kts 48°
2026-05-07 05:07 -37.85755 -57.36125 4465 ft 87 kts 49°
2026-05-07 05:07 -37.85376 -57.35516 4481 ft 90 kts 48°
2026-05-07 05:07 -37.84970 -57.34894 4495 ft 92 kts 37°
2026-05-07 05:07 -37.84380 -57.34760 4491 ft 87 kts 347°
2026-05-07 05:08 -37.83816 -57.34993 4493 ft 85 kts 339°
2026-05-07 05:08 -37.83248 -57.35230 4497 ft 86 kts 339°
2026-05-07 05:08 -37.82673 -57.35467 4498 ft 87 kts 339°
2026-05-07 05:08 -37.82097 -57.35700 4493 ft 87 kts 339°
2026-05-07 05:09 -37.81521 -57.35931 4494 ft 87 kts 340°
2026-05-07 05:09 -37.80948 -57.36160 4492 ft 86 kts 340°
2026-05-07 05:09 -37.80374 -57.36390 4493 ft 86 kts 339°
2026-05-07 05:09 -37.79805 -57.36617 4494 ft 86 kts 340°
2026-05-07 05:10 -37.79236 -57.36842 4494 ft 86 kts 340°
2026-05-07 05:10 -37.78667 -57.37068 4495 ft 86 kts 340°
2026-05-07 05:10 -37.78097 -57.37294 4497 ft 85 kts 339°
2026-05-07 05:10 -37.77539 -57.37516 4492 ft 85 kts 340°
2026-05-07 05:11 -37.76975 -57.37740 4496 ft 85 kts 339°
2026-05-07 05:11 -37.76412 -57.37963 4492 ft 85 kts 339°
2026-05-07 05:11 -37.75849 -57.38186 4491 ft 85 kts 339°
2026-05-07 05:11 -37.75288 -57.38408 4492 ft 84 kts 340°
2026-05-07 05:12 -37.74728 -57.38630 4493 ft 84 kts 340°
2026-05-07 05:12 -37.74168 -57.38852 4494 ft 84 kts 340°
2026-05-07 05:12 -37.73602 -57.39076 4494 ft 85 kts 339°
2026-05-07 05:12 -37.73036 -57.39299 4494 ft 85 kts 340°
2026-05-07 05:13 -37.72471 -57.39523 4495 ft 85 kts 340°
2026-05-07 05:13 -37.71904 -57.39747 4495 ft 85 kts 340°
2026-05-07 05:13 -37.71331 -57.39974 4493 ft 86 kts 339°
2026-05-07 05:13 -37.70759 -57.40200 4492 ft 86 kts 339°
2026-05-07 05:14 -37.70190 -57.40425 4493 ft 86 kts 340°
2026-05-07 05:14 -37.69621 -57.40650 4491 ft 86 kts 339°
2026-05-07 05:14 -37.69055 -57.40874 4493 ft 86 kts 339°
2026-05-07 05:14 -37.68484 -57.41100 4493 ft 86 kts 340°
2026-05-07 05:15 -37.67914 -57.41325 4494 ft 86 kts 340°
2026-05-07 05:15 -37.67345 -57.41550 4491 ft 86 kts 339°
2026-05-07 05:15 -37.66772 -57.41776 4490 ft 86 kts 339°
2026-05-07 05:15 -37.66202 -57.42002 4490 ft 86 kts 339°
2026-05-07 05:16 -37.65635 -57.42226 4489 ft 85 kts 339°
2026-05-07 05:16 -37.65069 -57.42450 4488 ft 85 kts 339°
2026-05-07 05:16 -37.64501 -57.42674 4487 ft 85 kts 339°
2026-05-07 05:16 -37.63936 -57.42897 4491 ft 85 kts 339°
2026-05-07 05:17 -37.63372 -57.43120 4488 ft 85 kts 339°
2026-05-07 05:17 -37.62806 -57.43343 4490 ft 85 kts 340°
2026-05-07 05:17 -37.62236 -57.43568 4489 ft 86 kts 339°
2026-05-07 05:17 -37.61668 -57.43792 4489 ft 85 kts 339°
2026-05-07 05:18 -37.61102 -57.44015 4490 ft 85 kts 339°
2026-05-07 05:18 -37.60536 -57.44238 4493 ft 85 kts 340°
2026-05-07 05:18 -37.59967 -57.44463 4485 ft 85 kts 339°
2026-05-07 05:18 -37.59400 -57.44686 4485 ft 85 kts 339°
2026-05-07 05:19 -37.58836 -57.44909 4489 ft 85 kts 339°
2026-05-07 05:19 -37.58279 -57.45128 4492 ft 85 kts 339°
2026-05-07 05:19 -37.57714 -57.45351 4487 ft 85 kts 339°
2026-05-07 05:19 -37.57153 -57.45572 4486 ft 84 kts 339°
2026-05-07 05:20 -37.56596 -57.45792 4487 ft 84 kts 339°
2026-05-07 05:20 -37.56040 -57.46011 4491 ft 84 kts 339°
2026-05-07 05:20 -37.55484 -57.46230 4488 ft 84 kts 339°
2026-05-07 05:20 -37.54930 -57.46448 4488 ft 83 kts 339°
2026-05-07 05:21 -37.54377 -57.46666 4485 ft 83 kts 339°
2026-05-07 05:21 -37.53269 -57.47102 4495 ft 83 kts 339°
2026-05-07 05:21 -37.52716 -57.47320 4494 ft 83 kts 339°
2026-05-07 05:22 -37.52162 -57.47538 4492 ft 83 kts 339°
2026-05-07 05:22 -37.51608 -57.47756 4498 ft 83 kts 339°
2026-05-07 05:22 -37.51051 -57.47975 4491 ft 84 kts 339°
2026-05-07 05:22 -37.50497 -57.48193 4498 ft 83 kts 339°
2026-05-07 05:23 -37.49945 -57.48410 4486 ft 83 kts 339°
2026-05-07 05:23 -37.49395 -57.48627 4495 ft 83 kts 338°
2026-05-07 05:23 -37.48851 -57.48841 4489 ft 83 kts 338°
2026-05-07 05:23 -37.48302 -57.49056 4492 ft 82 kts 338°
2026-05-07 05:24 -37.47756 -57.49271 4500 ft 82 kts 338°
2026-05-07 05:24 -37.47211 -57.49485 4497 ft 82 kts 338°
2026-05-07 05:24 -37.46664 -57.49700 4497 ft 82 kts 338°
2026-05-07 05:24 -37.46119 -57.49915 4494 ft 82 kts 338°
2026-05-07 05:25 -37.45576 -57.50128 4490 ft 82 kts 338°
2026-05-07 05:25 -37.45032 -57.50341 4500 ft 82 kts 338°
2026-05-07 05:25 -37.44486 -57.50556 4491 ft 82 kts 338°
2026-05-07 05:25 -37.43943 -57.50769 4490 ft 82 kts 338°
2026-05-07 05:26 -37.43400 -57.50982 4493 ft 82 kts 338°
2026-05-07 05:26 -37.42856 -57.51196 4502 ft 82 kts 338°
2026-05-07 05:26 -37.42306 -57.51412 4499 ft 83 kts 338°
2026-05-07 05:26 -37.41755 -57.51628 4499 ft 83 kts 338°
2026-05-07 05:27 -37.41211 -57.51841 4498 ft 83 kts 338°
2026-05-07 05:27 -37.40659 -57.52057 4504 ft 83 kts 338°
2026-05-07 05:27 -37.40104 -57.52275 4499 ft 83 kts 337°
2026-05-07 05:27 -37.39550 -57.52493 4497 ft 83 kts 337°
2026-05-07 05:28 -37.38998 -57.52709 4499 ft 83 kts 337°
2026-05-07 05:28 -37.38449 -57.52924 4504 ft 83 kts 337°
2026-05-07 05:28 -37.37898 -57.53140 4498 ft 83 kts 337°
2026-05-07 05:28 -37.37349 -57.53355 4498 ft 82 kts 337°
2026-05-07 05:29 -37.36803 -57.53569 4497 ft 82 kts 337°
2026-05-07 05:29 -37.36257 -57.53783 4506 ft 82 kts 337°
2026-05-07 05:29 -37.35710 -57.53998 4504 ft 82 kts 337°
2026-05-07 05:29 -37.35166 -57.54211 4501 ft 82 kts 337°
2026-05-07 05:30 -37.34623 -57.54423 4500 ft 82 kts 337°
2026-05-07 05:30 -37.34081 -57.54636 4506 ft 82 kts 336°
2026-05-07 05:30 -37.33535 -57.54849 4500 ft 82 kts 336°
2026-05-07 05:30 -37.32992 -57.55061 4498 ft 81 kts 336°
2026-05-07 05:31 -37.32459 -57.55270 4499 ft 81 kts 336°
2026-05-07 05:31 -37.31919 -57.55482 4505 ft 81 kts 336°
2026-05-07 05:31 -37.31379 -57.55693 4504 ft 81 kts 336°
2026-05-07 05:31 -37.30839 -57.55904 4499 ft 81 kts 336°
2026-05-07 05:32 -37.30303 -57.56114 4503 ft 81 kts 336°
2026-05-07 05:32 -37.29767 -57.56324 4510 ft 81 kts 336°
2026-05-07 05:32 -37.29228 -57.56535 4505 ft 81 kts 336°
2026-05-07 05:32 -37.28692 -57.56744 4504 ft 81 kts 336°
2026-05-07 05:33 -37.28157 -57.56953 4504 ft 80 kts 336°
2026-05-07 05:33 -37.27625 -57.57161 4513 ft 80 kts 336°
2026-05-07 05:33 -37.27090 -57.57370 4508 ft 80 kts 336°
2026-05-07 05:33 -37.26557 -57.57578 4506 ft 80 kts 336°
2026-05-07 05:34 -37.26026 -57.57786 4505 ft 80 kts 336°
2026-05-07 05:34 -37.25493 -57.57995 4514 ft 80 kts 336°
2026-05-07 05:34 -37.24957 -57.58204 4504 ft 80 kts 336°
2026-05-07 05:34 -37.24423 -57.58412 4507 ft 80 kts 336°
2026-05-07 05:35 -37.23889 -57.58621 4506 ft 80 kts 336°
2026-05-07 05:35 -37.23355 -57.58829 4511 ft 80 kts 336°
2026-05-07 05:35 -37.22817 -57.59039 4505 ft 81 kts 336°
2026-05-07 05:35 -37.22280 -57.59248 4510 ft 81 kts 336°
2026-05-07 05:36 -37.21924 -57.59387 4509 ft 81 kts 336°
2026-05-07 05:36 -37.21388 -57.59597 4509 ft 81 kts 336°
2026-05-07 05:36 -37.20849 -57.59806 4510 ft 81 kts 336°
2026-05-07 05:36 -37.20314 -57.60015 4507 ft 80 kts 336°
2026-05-07 05:37 -37.19611 -57.60289 4508 ft 80 kts 335°
2026-05-07 05:37 -37.19083 -57.60495 4517 ft 79 kts 335°
2026-05-07 05:37 -37.18726 -57.60635 4512 ft 79 kts 335°
2026-05-07 05:37 -37.18200 -57.60839 4511 ft 79 kts 335°
2026-05-07 05:38 -37.17507 -57.61110 4509 ft 79 kts 335°
2026-05-07 05:38 -37.17153 -57.61248 4510 ft 79 kts 335°
2026-05-07 05:38 -37.16636 -57.61449 4511 ft 79 kts 335°
2026-05-07 05:38 -37.16114 -57.61653 4510 ft 79 kts 335°
2026-05-07 05:39 -37.15592 -57.61856 4512 ft 79 kts 335°
2026-05-07 05:39 -37.15071 -57.62059 4510 ft 78 kts 335°
2026-05-07 05:39 -37.14548 -57.62263 4509 ft 79 kts 335°
2026-05-07 05:39 -37.14026 -57.62466 4513 ft 78 kts 335°
2026-05-07 05:40 -37.13506 -57.62668 4509 ft 78 kts 335°
2026-05-07 05:40 -37.12986 -57.62871 4512 ft 78 kts 335°
2026-05-07 05:40 -37.12465 -57.63074 4514 ft 79 kts 335°
2026-05-07 05:40 -37.11943 -57.63277 4512 ft 78 kts 335°
2026-05-07 05:41 -37.11422 -57.63480 4515 ft 78 kts 335°
2026-05-07 05:41 -37.10900 -57.63683 4514 ft 78 kts 335°
2026-05-07 05:41 -37.10376 -57.63887 4516 ft 79 kts 335°
2026-05-07 05:41 -37.09853 -57.64090 4513 ft 78 kts 335°
2026-05-07 05:42 -37.09332 -57.64292 4514 ft 78 kts 335°
2026-05-07 05:42 -37.08811 -57.64495 4514 ft 78 kts 334°
2026-05-07 05:42 -37.08287 -57.64699 4514 ft 79 kts 334°
2026-05-07 05:42 -37.07764 -57.64902 4515 ft 78 kts 334°
2026-05-07 05:43 -37.07245 -57.65104 4512 ft 78 kts 334°
2026-05-07 05:43 -37.06727 -57.65305 4513 ft 78 kts 334°
2026-05-07 05:43 -37.06211 -57.65506 4516 ft 78 kts 334°
2026-05-07 05:43 -37.05702 -57.65704 4515 ft 77 kts 334°
2026-05-07 05:44 -37.05188 -57.65903 4515 ft 77 kts 334°
2026-05-07 05:44 -37.04673 -57.66104 4514 ft 78 kts 334°
2026-05-07 05:44 -37.04152 -57.66306 4517 ft 78 kts 334°
2026-05-07 05:44 -37.03632 -57.66508 4513 ft 79 kts 334°
2026-05-07 05:45 -37.03111 -57.66710 4517 ft 78 kts 334°
2026-05-07 05:45 -37.02590 -57.66912 4519 ft 78 kts 334°
2026-05-07 05:45 -37.02066 -57.67115 4517 ft 79 kts 334°
2026-05-07 05:45 -37.01543 -57.67318 4518 ft 79 kts 334°
2026-05-07 05:46 -37.01022 -57.67520 4518 ft 78 kts 334°
2026-05-07 05:46 -37.00499 -57.67723 4519 ft 79 kts 334°
2026-05-07 05:46 -36.99973 -57.67927 4517 ft 79 kts 334°
2026-05-07 05:46 -36.99444 -57.68115 4521 ft 81 kts 341°
2026-05-07 05:47 -36.98877 -57.68171 4521 ft 82 kts 345°
2026-05-07 05:47 -36.98311 -57.68231 4523 ft 81 kts 345°
2026-05-07 05:47 -36.97744 -57.68291 4522 ft 82 kts 345°
2026-05-07 05:47 -36.97190 -57.68350 4523 ft 81 kts 345°
2026-05-07 05:48 -36.96631 -57.68410 4522 ft 80 kts 344°
2026-05-07 05:48 -36.96073 -57.68469 4521 ft 80 kts 344°
2026-05-07 05:48 -36.95514 -57.68529 4521 ft 81 kts 344°
2026-05-07 05:48 -36.94956 -57.68589 4522 ft 80 kts 344°
2026-05-07 05:49 -36.94400 -57.68649 4523 ft 80 kts 344°
2026-05-07 05:49 -36.93845 -57.68708 4521 ft 80 kts 344°
2026-05-07 05:49 -36.93290 -57.68768 4522 ft 80 kts 344°
2026-05-07 05:49 -36.92737 -57.68827 4521 ft 80 kts 343°
2026-05-07 05:50 -36.92184 -57.68886 4527 ft 80 kts 343°
2026-05-07 05:50 -36.91633 -57.68945 4524 ft 79 kts 343°
2026-05-07 05:50 -36.91080 -57.69005 4525 ft 80 kts 343°
2026-05-07 05:50 -36.90525 -57.69064 4525 ft 80 kts 343°
2026-05-07 05:51 -36.89965 -57.69124 4523 ft 81 kts 343°
2026-05-07 05:51 -36.89404 -57.69184 4525 ft 81 kts 343°
2026-05-07 05:51 -36.88841 -57.69245 4522 ft 82 kts 343°
2026-05-07 05:51 -36.88202 -57.69317 4502 ft 99 kts 346°
2026-05-07 05:52 -36.87487 -57.69389 4510 ft 107 kts 346°
2026-05-07 05:52 -36.86729 -57.69465 4513 ft 111 kts 347°
2026-05-07 05:52 -36.85950 -57.69544 4528 ft 113 kts 347°
2026-05-07 05:52 -36.85168 -57.69626 4530 ft 115 kts 347°
2026-05-07 05:53 -36.84367 -57.69710 4523 ft 116 kts 347°
2026-05-07 05:53 -36.83561 -57.69795 4530 ft 117 kts 347°
2026-05-07 05:53 -36.82748 -57.69881 4524 ft 117 kts 347°
2026-05-07 05:53 -36.81939 -57.69966 4529 ft 116 kts 347°
2026-05-07 05:54 -36.81131 -57.70052 4527 ft 116 kts 347°
2026-05-07 05:54 -36.80332 -57.70138 4531 ft 115 kts 347°
2026-05-07 05:54 -36.79539 -57.70226 4723 ft 113 kts 354°
2026-05-07 05:54 -36.78762 -57.70310 4845 ft 111 kts 350°
2026-05-07 05:55 -36.78005 -57.70391 4962 ft 109 kts 340°
2026-05-07 05:55 -36.77333 -57.70483 4974 ft 110 kts 330°
2026-05-07 05:55 -36.76530 -57.70606 4973 ft 121 kts 345°
2026-05-07 05:55 -36.75690 -57.70655 4976 ft 121 kts 343°
2026-05-07 05:56 -36.74844 -57.70732 4818 ft 124 kts 347°
2026-05-07 05:56 -36.73968 -57.70820 4703 ft 128 kts 347°
2026-05-07 05:56 -36.73075 -57.70910 4590 ft 129 kts 347°
2026-05-07 05:56 -36.72199 -57.71000 4533 ft 126 kts 347°
2026-05-07 05:57 -36.71344 -57.71090 4525 ft 121 kts 346°
2026-05-07 05:57 -36.70512 -57.71180 4521 ft 119 kts 346°
2026-05-07 05:57 -36.69691 -57.71269 4525 ft 118 kts 346°
2026-05-07 05:57 -36.68876 -57.71357 4525 ft 117 kts 346°
2026-05-07 05:58 -36.68064 -57.71444 4524 ft 117 kts 346°
2026-05-07 05:58 -36.67254 -57.71530 4523 ft 117 kts 346°
2026-05-07 05:58 -36.66443 -57.71617 4529 ft 117 kts 346°
2026-05-07 05:58 -36.65634 -57.71703 4529 ft 117 kts 346°
2026-05-07 05:59 -36.64828 -57.71788 4528 ft 116 kts 346°